Lamar, CO

9:49 PM MDT on April 24, 2018 (GMT -0600)
Lamar Municipal

Weather History for KLAA - May, 2013

Change the Weather History Date:

Monday, May 13, 2013

  Actual Average Record
Temperature  
Mean Temperature 70 °F 61 °F  
Max Temperature 94 °F 78 °F 96 °F (1941)
Min Temperature 46 °F 45 °F 20 °F (1920)
Degree Days  
Heating Degree Days 0 5  
Month to date heating degree days 153 86  
Since 1 July heating degree days 5473 5486  
Cooling Degree Days 5 1  
Month to date cooling degree days 7 11  
Year to date cooling degree days 9 16  
Growing Degree Days 20 (Base 50)    
Moisture  
Dew Point 31 °F    
Average Humidity 34    
Maximum Humidity 58    
Minimum Humidity 9    
Precipitation  
Precipitation 0.00 in 0.05 in 1.88 in (1985)
Month to date precipitation 0.18  
Year to date precipitation 0.51  
Sea Level Pressure  
Sea Level Pressure 29.92 in    
Wind  
Wind Speed 6 mph (WSW)    
Max Wind Speed 17 mph    
Max Gust Speed 20 mph    
Visibility 10 miles    
Events      
T = Trace of Precipitation, MM = Missing Value Source: NWS Daily Summary

Daily Weather History Graph

Daily Weather History Graph

Search for Another Location

Airport or City:

Astronomy

May. 13, 2013 Rise Set
Actual Time 5:41 AM MDT 7:53 PM MDT
Civil Twilight 5:12 AM MDT 8:22 PM MDT
Nautical Twilight 4:36 AM MDT 8:58 PM MDT
Astronomical Twilight 3:57 AM MDT 9:38 PM MDT
Moon 8:29 AM MDT (5/13) 11:03 PM MDT (5/13)
Length of Visible Light 15h 10m
Length of Day
14h 11m
Waxing Crescent, 12% of the Moon is Illuminated
May 13
Waxing Crescent
May 17
First Quarter
May 24
Full
May 31
Last Quarter
Jun 8
New

Hourly Weather History & Observations

Time (MDT) Temp. Dew Point Humidity Pressure Visibility Wind Dir Wind Speed Gust Speed Precip Events Conditions
12:53 AM 60.1 °F 34.0 °F 38% 29.97 in 10.0 mi SSW 11.5 mph - N/A   Clear
1:53 AM 57.0 °F 35.1 °F 44% 29.96 in 10.0 mi WSW 4.6 mph - N/A   Clear
2:53 AM 52.0 °F 35.1 °F 53% 29.96 in 10.0 mi West 9.2 mph - N/A   Clear
3:53 AM 52.0 °F 33.1 °F 49% 29.96 in 10.0 mi West 6.9 mph - N/A   Clear
4:53 AM 53.1 °F 32.0 °F 45% 29.96 in 10.0 mi WSW 8.1 mph - N/A   Clear
5:53 AM 46.9 °F 32.0 °F 56% 29.98 in 10.0 mi SSW 9.2 mph - N/A   Clear
6:53 AM 55.9 °F 33.1 °F 42% 29.99 in 10.0 mi SW 8.1 mph - N/A   Clear
7:53 AM 64.9 °F 30.0 °F 27% 30.00 in 10.0 mi West 9.2 mph - N/A   Clear
8:53 AM 72.0 °F 33.1 °F 24% 29.99 in 10.0 mi West 13.8 mph - N/A   Clear
9:53 AM 79.0 °F 30.9 °F 17% 29.98 in 10.0 mi WSW 12.7 mph - N/A   Clear
10:53 AM 84.0 °F 32.0 °F 15% 29.97 in 10.0 mi West 8.1 mph - N/A   Clear
11:53 AM 87.1 °F 30.0 °F 13% 29.94 in 10.0 mi NNW 8.1 mph - N/A   Clear
12:53 PM 90.0 °F 28.9 °F 11% 29.92 in 10.0 mi Variable 4.6 mph - N/A   Clear
2:53 PM 91.9 °F 27.0 °F 10% 29.90 in 10.0 mi Calm Calm - N/A   Clear
3:53 PM 93.0 °F 27.0 °F 9% 29.87 in 10.0 mi Calm Calm - N/A   Clear
4:53 PM 91.9 °F 27.0 °F 10% 29.86 in 10.0 mi North 4.6 mph - N/A   Clear
6:53 PM 90.0 °F 27.0 °F 10% 29.84 in 10.0 mi Calm Calm - N/A   Clear
7:53 PM 80.1 °F 28.9 °F 15% 29.84 in 10.0 mi SE 6.9 mph - N/A   Clear
8:53 PM 69.1 °F 30.9 °F 24% 29.85 in 10.0 mi South 4.6 mph - N/A   Clear
9:53 PM 69.1 °F 30.0 °F 23% 29.85 in 10.0 mi Calm Calm - N/A   Clear
10:53 PM 63.0 °F 32.0 °F 31% 29.84 in 10.0 mi West 4.6 mph - N/A   Clear
11:53 PM 60.1 °F 35.1 °F 39% 29.83 in 10.0 mi Calm Calm - N/A   Clear